This is the latest recevied weather packets stored in our database for station/object 9M4GIK-2. If no packets are shown the sender has not sent any weather packets the latest 10 day(s).
| Time | Temp. | Humidity | Pressure | Rain* | Wind** | Luminosity | Snow |
|---|---|---|---|---|---|---|---|
| 1778216045 | 32.22° C | 57% | 1007.3 hPa | - | - | - | - |
| 1778215145 | 32.22° C | 57% | 1007.4 hPa | - | - | - | - |
| 1778214244 | 31.67° C | 57% | 1007.2 hPa | - | - | - | - |
| 1778213344 | 32.22° C | 58% | 1007.3 hPa | - | - | - | - |
| 1778212444 | 32.22° C | 58% | 1007.5 hPa | - | - | - | - |
| 1778211543 | 32.22° C | 57% | 1007.6 hPa | - | - | - | - |
| 1778210643 | 32.22° C | 57% | 1007.6 hPa | - | - | - | - |
| 1778209743 | 32.22° C | 57% | 1007.6 hPa | - | - | - | - |
| 1778208843 | 32.22° C | 56% | 1007.3 hPa | - | - | - | - |
| 1778207943 | 32.22° C | 56% | 1007.4 hPa | - | - | - | - |
| 1778207043 | 32.22° C | 56% | 1007.4 hPa | - | - | - | - |
| 1778206143 | 32.22° C | 57% | 1007.4 hPa | - | - | - | - |
| 1778205243 | 32.22° C | 56% | 1007.6 hPa | - | - | - | - |
| 1778204343 | 32.22° C | 56% | 1007.4 hPa | - | - | - | - |
| 1778203443 | 32.78° C | 56% | 1007.2 hPa | - | - | - | - |
| 1778202543 | 33.89° C | 53% | 1006.9 hPa | - | - | - | - |
| 1778201642 | 33.33° C | 56% | 1006.8 hPa | - | - | - | - |
| 1778200742 | 32.22° C | 57% | 1006.7 hPa | - | - | - | - |
| 1778199842 | 32.22° C | 56% | 1006.4 hPa | - | - | - | - |
| 1778198942 | 32.22° C | 56% | 1006.2 hPa | - | - | - | - |
| 1778198042 | 32.22° C | 56% | 1006 hPa | - | - | - | - |
| 1778197142 | 32.78° C | 55% | 1005.7 hPa | - | - | - | - |
| 1778196242 | 32.78° C | 56% | 1005.3 hPa | - | - | - | - |
| 1778195342 | 32.78° C | 56% | 1005 hPa | - | - | - | - |
| 1778194442 | 32.22° C | 56% | 1005.1 hPa | - | - | - | - |
* Rain since midnight (hover to see other rain measurements)
** Current wind speed in m/s (hover to see current wind gust speed)